User: anonymous   Login
Location: Unspecified
(0.0000°N, 0.0000°E)
Time: 05:23:31
(UTC+01:00)
Language:

H-2A R/B - Orbit

View from above orbital plane
View from above orbital plane
View from above satellite
View from above satellite

Ground track
Ground track

The orbit data is extracted from the following two-line orbital elements,

1 26899U 01038B   15025.52668064  .00001495  00000-0  52903-3 0  1236
2 26899 028.2161 058.1714 7148041 332.6756 031.7654 02.44322448114958
Epoch (UTC): 25 January 2015 12:38:25
Eccentricity: 0.7148041
inclination: 28.2161°
perigee height: 263 km
apogee height: 33552 km
right ascension of ascending node: 58.1714°
argument of perigee: 332.6756°
revolutions per day: 2.44322448
mean anomaly at epoch: 31.7654°
orbit number at epoch: 11495

The dashed part of the orbit path shows where the satellite is in the earth's shadow,  

DLR